铱星星座 126星 (IRIDIUM 126)

导读

IRIDIUM 126是美国于2017年6月25日发射的铱星系统卫星,铱星系统是美国提供全球卫星语音通信和数据传输服务的低轨卫星星座,该卫星承担补充或替换星座中老旧卫星的作用,保障全球范围内个人通信、海事、航空等领域持续稳定的卫星通信服务,进一步完善铱星星座的全球覆盖能力。

基本信息
目录编号:
42809
目录名称:
IRIDIUM 126
国际标识:
2017-039G
轨道中心:
EARTH
卫星名称:
铱星星座 126星
卫星全名:
铱星星座 126星 (IRIDIUM 126)
卫星状态:
在轨 (已飞行3319 天)
发射日期:
2017-06-25 UTC
国别 :
美国 (US)
星等 :
--
轨道信息
数据来源 国际轨道数据 AOE轨道数据
星历时间 2026-07-27T14:22:23+0800
17小时前
查看轨道信息
2026-07-23T05:00:00+0800
5天前
查看轨道信息
半长轴 7155.804km 7155.8km
偏心率 0.0002036 0.0001998
轨道倾角 86.400° 86.400°
近地点辐角 94.036° 93.818°
升交点赤经 336.893° 338.726°
平近点角 266.107° 291.473°
近地点 776.21km 776.233km
远地点 779.124km 779.093km
周期 100.403分钟 100.403分钟
每日圈数 14.342178 14.34219
详细信息
平衡模式:
三轴稳定
覆盖范围:
全球
运营商:
铱星通信公司
运营商所在国:
美国
制造商(研发单位):
阿莱尼亚宇航公司
制造商所在国:
意大利
使用方式:
暂无
卫星简介
铱星(Iridium)是由共66个运作中的通信卫星组成的卫星通信系统。这个系统原本规划77个通信卫星,所以用原子序数为77的铱元素来命名。铱卫星允许人们使用手持型电子设备进行全球性的语音及数据通讯。该卫星仍在工作。
2D轨道图
3D轨道图
轨道高度分析图
轨道倾角分析图
轨道综合分析图
查看轨道综合分析图